Location: Santa Maria di Sala
(45.5070°N, 12.0300°E)
Time: 08:55:17
(UTC+02:00)

STRAND 1 - Pass Details

Date: 28 February 2024
Orbit: 764 x 779 km, 98.4° (Epoch: 16 April)

Event Time Altitude Azimuth Distance (km) Brightness Sun altitude
Rises 05:31:49 0° 159° (SSE) 3,249 ? -15.0°
Reaches altitude 10° 05:34:07 10° 157° (SSE) 2,326 ? -14.6°
Maximum altitude 05:39:14 74° 73° (ENE) 814 ? -13.7°
Drops below altitude 10° 05:44:24 10° 350° (N) 2,342 ? -12.8°
Sets 05:46:43 0° 348° (NNW) 3,273 ? -12.4°
